This demonstration page uses our WeatherBlox Daily Observations layout. Learn more.

Left ArrowRight Arrow

38.80484, -77.04692

Hourly Observations for November 25, 2020

Temp ( °F °C ) Dew Point ( °F °C ) Humidity (%) Winds ( mph kmh ) Pressure ( in mb ) Visibility ( mi km ) Precip ( " mm )
12:52 am 00:52 Cloudy 46 7.8 37 2.8 71 71 S 12 19 30.36 1028 10 16.0934 0 0
1:52 am 01:52 Cloudy 46 7.8 37 2.8 71 71 S 12 19 30.36 1028 10 16.0934 0 0
2:52 am 02:52 Cloudy 46 7.8 38 3.3 73 73 S 10 17 30.36 1028 10 16.0934 0 0
3:52 am 03:52 Cloudy 45 7.2 37 2.8 74 74 S 12 19 30.34 1027 10 16.0934 0 0
4:52 am 04:52 Cloudy 45 7.2 38 3.3 77 77 S 7 11 30.33 1027 10 16.0934 0 0
5:52 am 05:52 Cloudy 45 7.2 36 2.2 71 71 S 14 22 30.33 1027 10 16.0934 0 0
6:52 am 06:52 Cloudy 45 7.2 36 2.2 71 71 SSW 12 19 30.35 1028 10 16.0934 0 0
7:52 am 07:52 Cloudy 45 7.2 37 2.8 74 74 S 9 15 30.34 1027 10 16.0934 0 0
8:52 am 08:52 Mostly Cloudy 47 8.3 38 3.3 71 71 SSW 9 15 30.32 1027 10 16.0934 0 0
9:52 am 09:52 Mostly Cloudy 51 10.6 38 3.3 61 61 SSW 18 30 30.33 1027 10 16.0934 0 0
10:52 am 10:52 Mostly Cloudy 54 12.2 38 3.3 55 55 S 13 20 30.3 1026 10 16.0934 0 0
11:52 am 11:52 Cloudy 54 12.2 37 2.8 53 53 SSW 12 19 30.28 1026 10 16.0934 0 0
12:52 pm 12:52 Cloudy 55 12.8 38 3.3 53 53 S 14 22 30.27 1025 10 16.0934 0 0
1:52 pm 13:52 Cloudy 56 13.3 40 4.4 55 55 S 13 20 30.25 1025 10 16.0934 0 0
2:52 pm 14:52 Cloudy 55 12.8 44 6.7 67 67 S 10 17 30.22 1023 10 16.0934 0 0
3:52 pm 15:52 Mostly Cloudy 55 12.8 45 7.2 69 69 S 9 15 30.21 1023 10 16.0934 0 0
4:52 pm 16:52 Mostly Cloudy 54 12.2 45 7.2 72 72 S 9 15 30.22 1023 10 16.0934 0 0
7:52 pm 19:52 Mostly Cloudy 52 11.1 46 7.8 80 80 S 3 6 30.19 1022 10 16.0934 0 0
8:52 pm 20:52 Mostly Cloudy 53 11.7 45 7.2 74 74 S 3 6 30.17 1022 10 16.0934 0 0
9:52 pm 21:52 Partly Cloudy 53 11.7 46 7.8 77 77 Calm 30.14 1021 10 16.0934 0 0
10:52 pm 22:52 Cloudy 53 11.7 47 8.3 80 80 Calm 30.11 1020 10 16.0934 0 0
11:52 pm 23:52 Cloudy with Light Rain 54 12.2 50 10 87 87 S 5 7 30.11 1020 10 16.0934 0.01 0.254

Powered by AerisWeather